Weather in Pathein

Myanmar     16°46′22″N   94°43′58″E
temp.,
°C
wind,
m/s
gust,
m/s
humid.,
%
clouds,
%
prec.,
mm/h
press.,
hPa
HPBL,
m
8 may, sat
sat800:30+29wnw3566100 0.3 1010353
03:30+28nw377381 0.0 1009432
06:30+29nw266991 0.0 1010610
09:30+34nnw33477 0.0 10111230
12:30+39e113072 0.0 10082989
15:30+27wsw5782100 6.6 1006264
18:30+26nne227394 30.6 100898
21:30+27wsw247198 0.0 1009105
9 may, sun
sun900:30+27w2376100 0.0 100997
03:30+27wnw228399 0.0 100777
06:30+27nw128291 1.6 1009102
09:30+32wnw225742 0.1 10101153
12:30+36wsw324263 0.1 10082324
15:30+33w445292 0.1 1006880
18:30+30w466226 0.1 1006412
21:30+29wsw36735 0.3 1007285
10 may, mon
mon1000:30+28w25755 0.3 1007185
03:30+27w26815 1.1 1007188
06:30+27wnw25795 1.1 1008188
09:30+33wnw34557 0.0 10091334
12:30+36w434132 0.0 10062218
15:30+35w644534 0.1 10051527
18:30+31w566113 0.1 1005581
21:30+29wsw377218 0.0 1007442
11 may, tue
tue1100:30+28w377588 0.0 1007374
03:30+28w277787 0.0 1007294
06:30+28wnw237545 0.0 1008176
09:30+33w345228 0.0 10091555
12:30+36w543921 0.0 10072246
15:30+35w754436 0.0 10051658
18:30+31w566142 0.1 1005709
21:30+29wsw36725 0.0 1006527
12 may, wed
wed1200:30+28w37765 0.0 1007469
03:30+27wsw258148 0.6 1006226
06:30+28sw247930 0.6 1007176
09:30+33wsw3455100 0.3 10091483
12:30+37w544199 0.3 10062367
15:30+35w7545100 0.0 10041680
18:30+31w576515 0.0 1005796
21:30+29wsw36745 0.0 1006645